{"data":{"norad_id":67901,"epoch":"2026-09-19T14:00:19.824192Z","epoch_age_seconds":142481,"freshness":"FRESH","line1":"1 67901U 26035Y   26262.58356278  .00020152  00000+0  62437-3 0  9995","line2":"2 67901  97.2875 194.4581 0001405  81.3868 278.7534 15.33469781 33705","mean_motion":15.33469781,"eccentricity":0.0001405,"inclination_deg":97.2875,"raan_deg":194.4581,"arg_perigee_deg":81.3868,"mean_anomaly_deg":278.7534,"bstar":0.00062437,"rev_number":3370,"period_min":93.904687124708,"perigee_km":464.50791794449,"apogee_km":466.43097135544,"semimajor_km":6843.60644465,"source":"CELESTRAK","updated_at":"2026-09-20T09:00:43.700157Z"}}